BEIDOU-3 M4 (C22)

Last updated on Tue Nov 19 2024 00:03:15 GMT+0000 (Coordinated Universal Time)

1 43207U 18018A 24321.97514572 -.00000033 00000+0 00000+0 0 9991 2 43207 56.1493 82.2621 0003854 19.0341 340.9493 1.86230999 45991
UTC large
Height (km)
Speed (km/s)
/
Latitude / Longitude
Inclination (degrees)
Orbital Period (minutes)
Azimuth
Elevation
Range (km)
Doppler Factor

Next 0 passes for location: London (51.5072 / 0.1276)

Sorry there are no passes over London.